Weather History for Dutch Harbor, AK

Change the Weather History Date:

Tuesday, January 15, 2013

  Actual Average Record
Temperature  
Mean Temperature 34 °F -  
Max Temperature 39 °F 36 °F 50 °F (1952)
Min Temperature 30 °F 26 °F 10 °F (1983)
Degree Days  
Heating Degree Days 30    
Moisture  
Dew Point 31 °F    
Average Humidity 90    
Maximum Humidity 96    
Minimum Humidity 81    
Precipitation  
Precipitation 0.01 in - - ()
Sea Level Pressure  
Sea Level Pressure 30.12 in    
Wind  
Wind Speed 2 mph (North)    
Max Wind Speed 14 mph    
Max Gust Speed 22 mph    
Visibility 10 miles    
Events Rain    
Averages and records for this station are not official NWS values.
T = Trace of Precipitation, MM = Missing Value Source: NWS Daily Summary

Daily Weather History Graph

Daily Weather History Graph

Search for Another Location

Airport:

Trip Planner

Search our weather history database for the weather conditions in past years. The results will help you decide how hot, cold, wet, or windy it might be!

Date:

Astronomy

Jan. 15, 2013 Rise Set
Actual Time 10:15 AM AKST 6:16 PM AKST
Civil Twilight 9:34 AM AKST 6:57 PM AKST
Nautical Twilight 8:49 AM AKST 7:42 PM AKST
Astronomical Twilight 8:07 AM AKST 8:24 PM AKST
Moon 11:38 AM AKST (1/15) No Moon Set
Length of Visible Light 9h 23m
Length of Day
8h 00m
Waxing Crescent, 20% of the Moon is Illuminated
Jan 15
Waxing Crescent
Jan 18
First Quarter
Jan 26
Full
Feb 3
Last Quarter
Feb 9
New

Hourly Weather History & Observations

Time (AKST) Temp. Windchill Dew Point Humidity Pressure Visibility Wind Dir Wind Speed Gust Speed Precip Events Conditions
12:22 AM 33.8 °F - 32.0 °F 93% 29.96 in 10.0 mi Calm Calm - N/A   Overcast
12:56 AM 33.1 °F - 30.9 °F 92% 29.99 in 10.0 mi Calm Calm - N/A   Clear
1:56 AM 33.1 °F - 30.9 °F 92% 30.01 in 10.0 mi Calm Calm - N/A   Scattered Clouds
2:56 AM 33.1 °F 30.0 °F 30.9 °F 92% 30.03 in 10.0 mi SSE 3.5 mph - N/A   Scattered Clouds
3:56 AM 30.9 °F - 30.0 °F 96% 30.04 in 10.0 mi Calm Calm - N/A   Clear
4:56 AM 30.0 °F 26.5 °F 28.9 °F 96% 30.06 in 10.0 mi WSW 3.5 mph - N/A   Scattered Clouds
5:16 AM 30.2 °F 26.7 °F 28.4 °F 93% 30.05 in 10.0 mi NNW 3.5 mph - N/A   Mostly Cloudy
5:56 AM 30.9 °F 27.5 °F 28.9 °F 92% 30.07 in 10.0 mi NW 3.5 mph - N/A   Mostly Cloudy
6:56 AM 32.0 °F - 30.0 °F 92% 30.08 in 10.0 mi Calm Calm - N/A   Overcast
7:50 AM 32.0 °F 28.7 °F 30.2 °F 93% 30.08 in 10.0 mi West 3.5 mph - N/A   Overcast
7:56 AM 30.9 °F - 28.9 °F 92% 30.10 in 10.0 mi Calm Calm - N/A   Overcast
8:56 AM 32.0 °F - 30.0 °F 92% 30.12 in 10.0 mi Calm Calm - N/A   Overcast
9:56 AM 33.1 °F 28.7 °F 30.9 °F 92% 30.15 in 10.0 mi NW 4.6 mph - N/A   Mostly Cloudy
10:56 AM 33.1 °F 30.0 °F 30.9 °F 92% 30.16 in 10.0 mi NNW 3.5 mph - 0.00 in   Mostly Cloudy
11:56 AM 37.0 °F - 35.1 °F 93% 30.16 in 10.0 mi Calm Calm - N/A   Mostly Cloudy
12:56 PM 35.1 °F - 32.0 °F 89% 30.17 in 10.0 mi Calm Calm - N/A   Overcast
1:56 PM 39.0 °F - 36.0 °F 89% 30.17 in 10.0 mi Calm Calm - N/A   Mostly Cloudy
2:56 PM 37.9 °F - 35.1 °F 89% 30.17 in 10.0 mi Calm Calm - N/A   Overcast
3:56 PM 37.0 °F - 34.0 °F 89% 30.17 in 10.0 mi Calm Calm - N/A   Overcast
4:51 PM 37.4 °F - 32.0 °F 81% 30.18 in 10.0 mi Calm Calm - 0.00 in   Mostly Cloudy
4:56 PM 37.0 °F - 33.1 °F 86% 30.19 in 10.0 mi Calm Calm - 0.00 in   Mostly Cloudy
6:32 PM 35.6 °F 30.7 °F 33.8 °F 93% 30.17 in 8.0 mi NNE 5.8 mph - 0.00 in Rain Light Rain
6:56 PM 36.0 °F 30.3 °F 33.1 °F 89% 30.19 in 10.0 mi North 6.9 mph - 0.00 in   Overcast
7:34 PM 37.4 °F 29.3 °F 32.0 °F 81% 30.18 in 10.0 mi NNE 12.7 mph - N/A   Overcast
7:56 PM 36.0 °F 29.0 °F 30.9 °F 82% 30.20 in 10.0 mi NNE 9.2 mph - 0.00 in Rain Light Rain
8:56 PM 36.0 °F 29.0 °F 30.9 °F 82% 30.21 in 10.0 mi North 9.2 mph - 0.01 in Rain Light Rain
9:56 PM 36.0 °F 28.5 °F 30.9 °F 82% 30.21 in 10.0 mi NNE 10.4 mph - 0.00 in Rain Light Rain
10:56 PM 35.1 °F 25.9 °F 30.9 °F 85% 30.21 in 10.0 mi NNE 13.8 mph 21.9 mph 0.00 in Rain Light Rain